Regional Weather Roundup
Issued by NWS Newport/Morehead, NC

Current Version | Previous Version | Graphics & Text | Print | Product List | Glossary Off
Versions: 1 2 3 4 5 6 7 8 9 10 11 12 13 14 15 16 17 18 19 20 21 22 23 24 25 26 27 28 29 30 31 32 33 34 35 36 37 38 39 40 41 42 43 44 45 46 47 48 49 50

073
ASUS42 KMHX 260013
RWRMHX
WEATHER ROUNDUP FOR EASTERN NORTH CAROLINA
NATIONAL WEATHER SERVICE NEWPORT/MOREHEAD CITY NC
800 PM EDT FRI MAY 25 2018

NOTE: "FAIR" INDICATES FEW OR NO CLOUDS BELOW 12,000 FEET
WITH NO SIGNIFICANT WEATHER AND/OR OBSTRUCTIONS TO VISIBILITY

NCZ015>017-031-032-045>047-102-103-260100-
NORTH COAST

CITY           SKY/WX    TMP DP  RH WIND       PRES   REMARKS
EDENTON        MOCLDY    81  71  71 S10       30.01R
ELIZABETH CITY FAIR      79  70  74 S9        30.00R
KITTY HAWK     FAIR      76  68  76 S3        30.01R
MANTEO         FAIR      77  69  76 SW15      30.02S

$$

NCZ045>047-081-094-103-104-260100-
CENTRAL COAST

CITY           SKY/WX    TMP DP  RH WIND       PRES   REMARKS
FRISCO         FAIR      76  70  82 S7        30.04R

$$

NCZ095-097-098-100-101-260100-
SOUTHERN COAST

CITY           SKY/WX    TMP DP  RH WIND       PRES   REMARKS
BEAUFORT       FAIR      76  71  85 S8        30.04R
CEDAR ISLAND   NOT AVBL
JACKSONVILLE   FAIR      76  71  85 S5        30.02R
PINEY ISLAND   NOT AVBL
WILMINGTON     FAIR      78  68  71 S7        30.03R


$$

NCZ011>013-027>030-043-044-078>080-089-090>093-098-260100-
COASTAL PLAIN

CITY           SKY/WX    TMP DP  RH WIND       PRES   REMARKS
AHOSKIE        MOCLDY    77  69  74 CALM      29.99R
CLINTON        FAIR      78  70  76 CALM      30.01S
ELIZABETHTOWN  FAIR      79  68  68 S7        30.02R
GOLDSBORO      MOCLDY    77  72  84 SE6       30.00R
GREENVILLE     FAIR      77  70  78 S3        30.03S
HAVELOCK       NOT AVBL
KENANSVILLE    FAIR      75  72  88 CALM      30.02R
KINSTON        CLEAR     75  73  94 S3        30.02S
NEW BERN       FAIR      76  67  73 S5        30.03R
RICHLANDS      FAIR      76  71  85 S6        30.03R
ROCKY MOUNT    FAIR      76  68  76 S6        30.00S
WASHINGTON     CLOUDY    76  70  80 CALM      30.02R
WHITEVILLE     FAIR      78  68  70 S7        30.02R

$$

AMZ130-135-150-152-154-156-158-170-250-252-270-ANZ085-086-088-633-658-670-260100-
MARINE OBSERVATIONS

STATION/POSITION TIME  TEMP    WIND        PRES    WAVE   SWELL
                       AIR SEA DIR/SP/G            HT/PER HT/PER
                 (UTC) (F)     (DEG/KT/KT) (MB)    (FT/S) (FT/S)
CHESAPEAKE LIGHT NOT AVBL
64 E VA BEACH    2350   70 69  180/ 10/ 12 1016.9    2/ 9   2/ 9
DUCK             2348   78 72  180/ 12/ 16 1015.6
2 E DUCK         0000      73                N/A     2/ 4
OREGON INLET     2336   76 80  180/ 14/ 16 1016.5
13E OREGON INLT  2348      72                N/A     2/ 9   2/ 9
HATTERAS CG      2348   76 78  190/  4/  8 1016.8
DIAMOND BUOY     2350   77 78  200/ 14/ 16 1017.5    3/ 8   2/ 8
CAPE LOOKOUT     0000          190/  8/  9 1017.4
BEAUFORT LAB     2348   77 79  200/  9/ 11 1017.3
30 SE NEW RVR IN 2308   77 77  190/  6/ 10 1016.9
30 SE NEW RVR IN 0000      77                N/A     3/ 9
27 SE WRIGHTSVLE 2308   77 77  190/  8/ 12 1016.9
5 SE WRIGHTSVLE  2308   75 75  140/  8/ 10 1016.0
225 S CAPE HAT   2350      79  170/  6/  8 1017.6    3/ 8   3/ 8
41 SE CHARLESTON 2350      77  180/ 10/ 12 1016.6    2/ 8   2/ 8

$$




USA.gov is the U.S. government's official web portal to all federal, state and local government web resources and services.